Worland, WY

11:28 AM MDT on October 01, 2016 (GMT -0600)
Worland Municipal

Weather History for KWRL - December, 2013

Change the Weather History Date:

Tuesday, December 3, 2013

  Actual Average Record
Temperature  
Mean Temperature 17 °F 21 °F  
Max Temperature 28 °F 34 °F 63 °F (1998)
Min Temperature 6 °F 8 °F -20 °F (1978)
Degree Days  
Heating Degree Days 48 44  
Month to date heating degree days 103 131  
Since 1 July heating degree days 1959 2023  
Cooling Degree Days 0 0  
Month to date cooling degree days 0 0  
Year to date cooling degree days 852 535  
Moisture  
Dew Point 8 °F    
Average Humidity 74    
Maximum Humidity 81    
Minimum Humidity 66    
Precipitation  
Precipitation T in 0.01 in 0.10 in (1964)
Month to date precipitation T 0.03  
Year to date precipitation 7.74 7.37  
Sea Level Pressure  
Sea Level Pressure 29.90 in    
Wind  
Wind Speed 17 mph (NW)    
Max Wind Speed 28 mph    
Max Gust Speed 37 mph    
Visibility 5 miles    
Events Snow    
T = Trace of Precipitation, MM = Missing Value Source: NWS Daily Summary

Daily Weather History Graph

Daily Weather History Graph

Search for Another Location

Airport or City:

Trip Planner

Search our weather history database for the weather conditions in past years. The results will help you decide how hot, cold, wet, or windy it might be!

Date:

Astronomy

Dec. 03, 2013 Rise Set
Actual Time 7:28 AM MST 4:34 PM MST
Civil Twilight 6:56 AM MST 5:06 PM MST
Nautical Twilight 6:20 AM MST 5:43 PM MST
Astronomical Twilight 5:45 AM MST 6:17 PM MST
Moon 8:00 AM MST (12/3) 5:42 PM MST (12/3)
Length of Visible Light 10h 10m
Length of Day
9h 05m
New Moon, 1% of the Moon is Illuminated
Dec 3
New Moon
Dec 9
First Quarter
Dec 17
Full
Dec 25
Last Quarter
Jan 1
New

Hourly Weather History & Observations

Time (MST) Temp. Windchill Dew Point Humidity Pressure Visibility Wind Dir Wind Speed Gust Speed Precip Events Conditions
12:14 AM 27.0 °F 16.1 °F 24.1 °F 89% 29.58 in 3.0 mi NW 12.7 mph - 0.00 in Snow Light Snow
12:53 AM 27.0 °F 14.7 °F 21.9 °F 81% 29.65 in 6.0 mi NW 16.1 mph - 0.00 in Snow Light Snow
1:18 AM 25.0 °F 14.2 °F 21.9 °F 88% 29.60 in 2.0 mi NW 11.5 mph - 0.00 in Snow Light Snow
1:39 AM 24.1 °F 13.1 °F 21.0 °F 88% 29.61 in 4.0 mi WNW 11.5 mph - 0.00 in Snow Light Snow
1:53 AM 24.1 °F 12.5 °F 19.9 °F 84% 29.68 in 8.0 mi WNW 12.7 mph 20.7 mph 0.00 in Snow Light Snow
2:53 AM 23.0 °F 8.7 °F 18.0 °F 81% 29.68 in 10.0 mi WNW 18.4 mph 26.5 mph 0.00 in   Overcast
3:53 AM 21.0 °F 7.1 °F 15.1 °F 78% 29.74 in 10.0 mi WNW 16.1 mph 28.8 mph N/A   Overcast
4:53 AM 18.0 °F 4.2 °F 12.9 °F 81% 29.75 in 9.0 mi West 13.8 mph - N/A   Overcast
5:53 AM 17.1 °F 3.0 °F 12.0 °F 81% 29.80 in 4.0 mi WNW 13.8 mph - 0.00 in Snow Light Snow
6:53 AM 16.0 °F -1.3 °F 10.9 °F 81% 29.84 in 4.0 mi WNW 20.7 mph 27.6 mph 0.00 in Snow Light Snow
7:53 AM 15.1 °F -1.6 °F 9.0 °F 77% 29.87 in 5.0 mi NW 18.4 mph 26.5 mph 0.00 in Snow Light Snow
8:43 AM 15.1 °F -0.6 °F 9.0 °F 77% 29.79 in 5.0 mi NW 16.1 mph - 0.00 in Snow Light Snow
8:53 AM 14.0 °F -2.5 °F 9.0 °F 80% 29.91 in 7.0 mi WNW 17.3 mph - 0.00 in Snow Light Snow
9:53 AM 14.0 °F -1.4 °F 7.0 °F 74% 29.96 in 5.0 mi NW 15.0 mph 25.3 mph 0.00 in Snow Light Snow
10:03 AM 14.0 °F -3.0 °F 8.1 °F 77% 29.83 in 4.0 mi NW 18.4 mph 27.6 mph 0.00 in Snow Light Snow
10:30 AM 14.0 °F -1.4 °F 8.1 °F 77% 29.85 in 2.0 mi WNW 15.0 mph - 0.00 in Snow Light Snow
10:38 AM 14.0 °F -2.0 °F 8.1 °F 77% 29.85 in 1.8 mi WNW 16.1 mph 25.3 mph 0.00 in Snow Light Snow
10:53 AM 14.0 °F -1.4 °F 9.0 °F 80% 29.99 in 1.0 mi WNW 15.0 mph 24.2 mph 0.00 in Snow Light Snow
11:04 AM 14.0 °F -3.0 °F 9.0 °F 80% 29.84 in 0.8 mi NW 18.4 mph - 0.00 in Snow Light Snow
11:14 AM 14.0 °F -2.5 °F 9.0 °F 80% 29.84 in 1.0 mi NW 17.3 mph 26.5 mph 0.00 in Snow Light Snow
11:53 AM 12.9 °F -4.4 °F 7.0 °F 77% 29.97 in 1.8 mi NW 18.4 mph 25.3 mph 0.00 in Snow Light Snow
12:00 PM 12.9 °F -4.4 °F 7.0 °F 77% 29.81 in 2.0 mi NW 18.4 mph - 0.00 in Snow Light Snow
12:14 PM 12.9 °F -3.9 °F 7.0 °F 77% 29.81 in 1.8 mi NW 17.3 mph 28.8 mph 0.00 in Snow Light Snow
12:53 PM 12.9 °F -5.7 °F 7.0 °F 77% 29.98 in 0.8 mi NW 21.9 mph 29.9 mph 0.00 in Snow Light Snow
1:04 PM 12.9 °F -5.7 °F 7.0 °F 77% 29.82 in 0.8 mi NW 21.9 mph 29.9 mph 0.00 in Snow Light Snow
1:31 PM 12.9 °F -6.1 °F 8.1 °F 81% 29.82 in 1.0 mi NW 23.0 mph 32.2 mph 0.00 in Snow Light Snow
1:53 PM 12.9 °F -6.5 °F 7.0 °F 77% 30.00 in 1.0 mi NW 24.2 mph 29.9 mph 0.00 in Snow Light Snow
2:53 PM 12.0 °F -8.1 °F 6.1 °F 77% 30.02 in 1.8 mi NNW 25.3 mph 29.9 mph 0.00 in Snow Light Snow
3:01 PM 12.0 °F -6.5 °F 5.0 °F 73% 29.86 in 2.0 mi NNW 20.7 mph 32.2 mph 0.00 in Snow Light Snow
3:14 PM 12.0 °F -6.0 °F 3.9 °F 70% 29.88 in 5.0 mi NW 19.6 mph 25.3 mph 0.00 in Snow Light Snow
3:28 PM 12.0 °F -5.6 °F 3.9 °F 70% 29.87 in 7.0 mi NNW 18.4 mph - 0.00 in Snow Light Snow
3:53 PM 10.9 °F -7.0 °F 3.0 °F 70% 30.03 in 10.0 mi NNW 18.4 mph 27.6 mph 0.00 in   Overcast
4:53 PM 10.0 °F -7.1 °F 1.9 °F 70% 30.09 in 10.0 mi NW 16.1 mph 25.3 mph N/A   Overcast
5:53 PM 9.0 °F -7.3 °F 1.0 °F 70% 30.14 in 10.0 mi NW 13.8 mph - N/A   Overcast
6:53 PM 8.1 °F -9.0 °F -0.0 °F 70% 30.15 in 10.0 mi NW 15.0 mph - N/A   Overcast
7:53 PM 7.0 °F -9.8 °F -0.0 °F 73% 30.17 in 10.0 mi NW 13.8 mph 20.7 mph N/A   Overcast
8:53 PM 7.0 °F -11.0 °F -0.0 °F 73% 30.16 in 10.0 mi NW 16.1 mph - N/A   Overcast
9:53 PM 7.0 °F -9.1 °F -0.0 °F 73% 30.17 in 10.0 mi NW 12.7 mph - N/A   Overcast
10:53 PM 7.0 °F -9.1 °F -0.0 °F 73% 30.19 in 10.0 mi WNW 12.7 mph - N/A   Overcast
11:41 PM 6.1 °F -10.9 °F -0.0 °F 76% 29.97 in 4.0 mi NW 13.8 mph - 0.00 in Snow Light Snow
11:53 PM 6.1 °F -11.6 °F -0.0 °F 76% 30.19 in 5.0 mi NW 15.0 mph - 0.00 in   Haze